TimePDT,TemperatureF,Dew PointF,Humidity,Sea Level PressureIn,VisibilityMPH,Wind Direction,Wind SpeedMPH,Gust SpeedMPH,PrecipitationIn,Events,Conditions,WindDirDegrees,DateUTC
12:15 AM,50.0,50.0,100,30.09,5.0,North,4.6,-,N/A,,Overcast,350,2013-07-24 07:15:00
12:35 AM,50.0,50.0,100,30.10,4.0,North,4.6,-,N/A,,Overcast,350,2013-07-24 07:35:00
12:55 AM,50.0,50.0,100,30.09,2.5,NNW,6.9,-,N/A,,Overcast,340,2013-07-24 07:55:00
1:15 AM,50.0,50.0,100,30.09,3.0,North,3.5,-,N/A,,Overcast,350,2013-07-24 08:15:00
1:35 AM,50.0,48.2,94,30.08,2.5,North,5.8,-,N/A,,Overcast,350,2013-07-24 08:35:00
1:55 AM,50.0,48.2,94,30.08,3.0,North,3.5,-,N/A,,Overcast,350,2013-07-24 08:55:00
2:15 AM,50.0,48.2,94,30.07,2.5,North,4.6,-,N/A,,Overcast,360,2013-07-24 09:15:00
2:35 AM,50.0,50.0,100,30.07,5.0,Calm,Calm,-,N/A,,Overcast,0,2013-07-24 09:35:00
2:55 AM,50.0,48.2,94,30.08,3.0,NNW,3.5,-,N/A,,Overcast,340,2013-07-24 09:55:00
3:15 AM,50.0,48.2,94,30.08,3.0,Calm,Calm,-,N/A,,Overcast,0,2013-07-24 10:15:00
3:35 AM,50.0,48.2,94,30.08,3.0,Calm,Calm,-,N/A,,Overcast,0,2013-07-24 10:35:00
3:55 AM,50.0,48.2,94,30.08,0.5,Calm,Calm,-,N/A,Fog,Fog,0,2013-07-24 10:55:00
4:15 AM,50.0,48.2,94,30.09,0.5,NNW,3.5,-,N/A,Fog,Fog,340,2013-07-24 11:15:00
4:35 AM,50.0,50.0,100,30.09,1.2,Calm,Calm,-,N/A,,Overcast,0,2013-07-24 11:35:00
4:55 AM,50.0,50.0,100,30.09,2.5,Calm,Calm,-,N/A,,Overcast,0,2013-07-24 11:55:00
5:15 AM,50.0,50.0,100,30.10,2.0,Calm,Calm,-,N/A,,Overcast,0,2013-07-24 12:15:00
5:35 AM,50.0,50.0,100,30.10,3.0,Calm,Calm,-,N/A,,Overcast,0,2013-07-24 12:35:00
5:55 AM,50.0,50.0,100,30.09,1.0,North,4.6,-,N/A,,Overcast,350,2013-07-24 12:55:00
6:15 AM,48.2,48.2,100,30.09,0.2,North,5.8,-,N/A,Fog,Fog,350,2013-07-24 13:15:00
6:35 AM,50.0,50.0,100,30.09,1.5,North,3.5,-,N/A,,Overcast,10,2013-07-24 13:35:00
6:55 AM,50.0,50.0,100,30.10,7.0,NNE,3.5,-,N/A,,Overcast,30,2013-07-24 13:55:00
7:15 AM,50.0,50.0,100,-9999,3.0,NE,4.6,-,N/A,,Overcast,40,2013-07-24 14:15:00
7:35 AM,50.0,50.0,100,30.10,5.0,NE,3.5,-,N/A,,Overcast,50,2013-07-24 14:35:00
7:55 AM,50.0,50.0,100,30.10,0.8,North,4.6,-,N/A,,Overcast,350,2013-07-24 14:55:00
8:15 AM,50.0,50.0,100,30.10,2.0,NNW,3.5,-,N/A,,Overcast,340,2013-07-24 15:15:00
8:35 AM,50.0,50.0,100,30.10,5.0,NNW,5.8,-,N/A,,Overcast,340,2013-07-24 15:35:00
8:55 AM,50.0,50.0,100,30.10,2.5,NNW,6.9,-,N/A,,Overcast,340,2013-07-24 15:55:00
9:15 AM,51.8,50.0,94,30.11,5.0,North,3.5,-,N/A,,Overcast,350,2013-07-24 16:15:00
9:35 AM,51.8,51.8,100,30.10,7.0,North,8.1,-,N/A,,Overcast,350,2013-07-24 16:35:00
9:55 AM,51.8,50.0,94,30.10,7.0,NNW,9.2,-,N/A,,Overcast,340,2013-07-24 16:55:00
10:15 AM,53.6,51.8,94,30.10,7.0,NNW,9.2,-,N/A,,Overcast,340,2013-07-24 17:15:00
10:35 AM,55.4,51.8,88,30.10,10.0,NNW,10.4,-,N/A,,Overcast,330,2013-07-24 17:35:00
10:55 AM,55.4,50.0,82,30.09,10.0,NNW,13.8,-,N/A,,Scattered Clouds,340,2013-07-24 17:55:00
11:15 AM,55.4,50.0,82,30.10,10.0,NNW,12.7,-,N/A,,Clear,340,2013-07-24 18:15:00
11:35 AM,55.4,50.0,82,30.10,10.0,NNW,16.1,-,N/A,,Clear,340,2013-07-24 18:35:00
11:55 AM,55.4,50.0,82,30.10,10.0,NNW,19.6,27.6,N/A,,Clear,340,2013-07-24 18:55:00
12:15 PM,55.4,50.0,82,30.10,7.0,NNW,16.1,24.2,N/A,,Mostly Cloudy,340,2013-07-24 19:15:00
12:35 PM,53.6,50.0,88,30.09,7.0,North,16.1,25.3,N/A,,Mostly Cloudy,350,2013-07-24 19:35:00
12:55 PM,57.2,51.8,82,-9999,10.0,NNW,15.0,21.9,N/A,,Scattered Clouds,340,2013-07-24 19:55:00
1:15 PM,55.4,51.8,88,30.09,10.0,NNW,17.3,23.0,N/A,,Clear,340,2013-07-24 20:15:00
1:35 PM,55.4,50.0,82,30.09,7.0,NNW,20.7,27.6,N/A,,Clear,340,2013-07-24 20:35:00
1:55 PM,55.4,51.8,88,30.09,4.0,North,17.3,-,N/A,,Haze,350,2013-07-24 20:55:00
2:15 PM,55.4,50.0,82,30.09,4.0,NNW,17.3,24.2,N/A,,Haze,340,2013-07-24 21:15:00
2:35 PM,53.6,50.0,88,30.08,1.8,North,17.3,28.8,N/A,,Overcast,350,2013-07-24 21:35:00
2:55 PM,55.4,51.8,88,30.08,2.0,North,18.4,25.3,N/A,,Overcast,350,2013-07-24 21:55:00
3:15 PM,55.4,51.8,88,30.08,5.0,NNW,18.4,23.0,N/A,,Haze,340,2013-07-24 22:15:00
3:35 PM,55.4,51.8,88,30.08,4.0,NNW,23.0,29.9,N/A,,Haze,340,2013-07-24 22:35:00
3:55 PM,53.6,51.8,94,30.08,1.2,NNW,25.3,35.7,N/A,,Overcast,340,2013-07-24 22:55:00
4:15 PM,55.4,51.8,88,30.07,2.0,NNW,24.2,29.9,N/A,,Overcast,340,2013-07-24 23:15:00
4:35 PM,53.6,51.8,94,30.08,2.5,North,18.4,25.3,N/A,,Overcast,350,2013-07-24 23:35:00
4:55 PM,55.4,51.8,88,30.07,7.0,NNW,18.4,26.5,N/A,,Mostly Cloudy,340,2013-07-24 23:55:00
5:15 PM,55.4,51.8,88,30.07,10.0,North,20.7,26.5,N/A,,Scattered Clouds,350,2013-07-25 00:15:00
5:35 PM,55.4,50.0,82,30.07,10.0,NNW,20.7,-,N/A,,Clear,340,2013-07-25 00:35:00
5:55 PM,55.4,50.0,82,30.07,10.0,NNW,16.1,23.0,N/A,,Clear,340,2013-07-25 00:55:00
6:15 PM,53.6,50.0,88,30.07,7.0,North,15.0,21.9,N/A,,Clear,350,2013-07-25 01:15:00
6:35 PM,55.4,50.0,82,30.06,7.0,North,19.6,24.2,N/A,,Clear,350,2013-07-25 01:35:00
6:55 PM,53.6,50.0,88,30.06,7.0,NNW,18.4,25.3,N/A,,Clear,340,2013-07-25 01:55:00
7:15 PM,51.8,50.0,94,30.07,5.0,North,15.0,24.2,N/A,,Mostly Cloudy,350,2013-07-25 02:15:00
7:35 PM,51.8,50.0,94,30.07,5.0,NNW,15.0,23.0,N/A,,Overcast,340,2013-07-25 02:35:00
7:55 PM,51.8,50.0,94,30.07,4.0,North,18.4,23.0,N/A,,Overcast,350,2013-07-25 02:55:00
8:15 PM,51.8,50.0,94,30.07,1.8,NNW,13.8,-,N/A,,Overcast,340,2013-07-25 03:15:00
8:35 PM,51.8,50.0,94,30.07,2.5,North,12.7,18.4,N/A,,Overcast,350,2013-07-25 03:35:00
8:55 PM,50.0,50.0,100,30.07,1.2,North,10.4,-,N/A,,Overcast,350,2013-07-25 03:55:00
9:15 PM,50.0,50.0,100,30.08,3.0,North,9.2,-,N/A,,Overcast,350,2013-07-25 04:15:00
9:35 PM,50.0,50.0,100,30.08,1.2,North,10.4,-,N/A,,Overcast,350,2013-07-25 04:35:00
9:55 PM,50.0,48.2,94,30.08,1.8,North,5.8,-,N/A,,Overcast,360,2013-07-25 04:55:00
10:15 PM,48.2,48.2,100,30.09,5.0,North,9.2,-,N/A,,Overcast,350,2013-07-25 05:15:00
10:35 PM,48.2,48.2,100,30.09,1.8,NNW,9.2,-,N/A,,Overcast,340,2013-07-25 05:35:00
10:55 PM,48.2,48.2,100,30.09,1.5,North,6.9,-,N/A,,Overcast,350,2013-07-25 05:55:00
11:15 PM,48.2,46.4,93,30.09,1.0,North,8.1,-,N/A,,Overcast,350,2013-07-25 06:15:00
11:35 PM,48.2,48.2,100,30.09,4.0,North,5.8,-,N/A,,Overcast,360,2013-07-25 06:35:00
11:55 PM,48.2,48.2,100,30.09,7.0,North,3.5,-,N/A,,Overcast,350,2013-07-25 06:55:00